contact: severine.martini@mio.osupytheas.fr, dominique.lefevre@mio.osupytheas.fr
Project:EMSO Ligure-ouest http://www.emso-fr.org/EMSO-France
Sensor Microcat Sea-Bird SBE37 SMP,  Serial 57510 
DOI : "https://doi.org/10.17882/97948" 
Title:EMSO Ligure Ouest : Data Bathybot capteur Microcat - deploiement 2023-04-28
Datetime,Profondeur,Latitude,Longitude,Temperature,Conductivite,Pression,Salinite
time,m,degree_north,degree_east,degree_C,S/m,db,PSU 
2023-12-22T00:00:49,2420,42.8014,5.9826,13.3017,4.60066,2453.469,38.4981
2023-12-22T00:03:49,2420,42.8014,5.9826,13.3061,4.59966,2453.469,38.4843
2023-12-22T00:06:49,2420,42.8014,5.9826,13.3054,4.59998,2453.424,38.4880
2023-12-22T00:09:49,2420,42.8014,5.9826,13.3000,4.59969,2453.483,38.4907
2023-12-22T00:12:49,2420,42.8014,5.9826,13.2996,4.59946,2453.469,38.4888
2023-12-22T00:15:49,2420,42.8014,5.9826,13.3036,4.59967,2453.469,38.4868
2023-12-22T00:18:49,2420,42.8014,5.9826,13.3044,4.59988,2453.469,38.4881
2023-12-22T00:21:49,2420,42.8014,5.9826,13.3027,4.59982,2453.446,38.4892
2023-12-22T00:24:49,2420,42.8014,5.9826,13.3051,4.60053,2453.469,38.4934
2023-12-22T00:27:50,2420,42.8014,5.9826,13.3100,4.60025,2453.483,38.4859
2023-12-22T00:30:49,2420,42.8014,5.9826,13.3054,4.59993,2453.454,38.4876
2023-12-22T00:33:49,2420,42.8014,5.9826,13.3011,4.60042,2453.469,38.4963
2023-12-22T00:36:49,2420,42.8014,5.9826,13.3027,4.60000,2453.469,38.4908
2023-12-22T00:39:49,2420,42.8014,5.9826,13.3042,4.60058,2453.446,38.4949
2023-12-22T00:42:49,2420,42.8014,5.9826,13.3066,4.59972,2453.491,38.4843
2023-12-22T00:45:49,2420,42.8014,5.9826,13.3011,4.59974,2453.469,38.4900
2023-12-22T00:48:50,2420,42.8014,5.9826,13.2999,4.59996,2453.514,38.4933
2023-12-22T00:51:49,2420,42.8014,5.9826,13.3014,4.59959,2453.483,38.4883
2023-12-22T00:54:49,2420,42.8014,5.9826,13.2988,4.59972,2453.469,38.4921
2023-12-22T00:57:49,2420,42.8014,5.9826,13.3005,4.59963,2453.506,38.4895
2023-12-22T01:00:49,2420,42.8014,5.9826,13.3017,4.59957,2453.469,38.4878
2023-12-22T01:03:49,2420,42.8014,5.9826,13.3004,4.59947,2453.469,38.4882
2023-12-22T01:06:49,2420,42.8014,5.9826,13.3004,4.59959,2453.514,38.4893
2023-12-22T01:09:49,2420,42.8014,5.9826,13.2979,4.59944,2453.469,38.4903
2023-12-22T01:12:49,2420,42.8014,5.9826,13.2976,4.59947,2453.461,38.4909
2023-12-22T01:15:49,2420,42.8014,5.9826,13.2981,4.59942,2453.514,38.4899
2023-12-22T01:18:49,2420,42.8014,5.9826,13.3009,4.59963,2453.514,38.4892
2023-12-22T01:21:49,2420,42.8014,5.9826,13.3003,4.59954,2453.469,38.4888
2023-12-22T01:24:49,2420,42.8014,5.9826,13.3021,4.59974,2453.491,38.4889
2023-12-22T01:27:49,2420,42.8014,5.9826,13.2990,4.59956,2453.514,38.4903
2023-12-22T01:30:49,2420,42.8014,5.9826,13.3003,4.59967,2453.528,38.4901
2023-12-22T01:33:49,2420,42.8014,5.9826,13.3011,4.59974,2453.528,38.4900
2023-12-22T01:36:49,2420,42.8014,5.9826,13.3037,4.59931,2453.491,38.4833
2023-12-22T01:39:49,2420,42.8014,5.9826,13.2995,4.59940,2453.491,38.4884
2023-12-22T01:42:49,2420,42.8014,5.9826,13.3026,4.59986,2453.514,38.4896
2023-12-22T01:45:49,2420,42.8014,5.9826,13.3016,4.59968,2453.537,38.4890
2023-12-22T01:48:49,2420,42.8014,5.9826,13.2987,4.59972,2453.514,38.4922
2023-12-22T01:51:49,2420,42.8014,5.9826,13.3001,4.59957,2453.537,38.4894
2023-12-22T01:54:49,2420,42.8014,5.9826,13.3000,4.59961,2453.514,38.4898
2023-12-22T01:57:49,2420,42.8014,5.9826,13.2999,4.59959,2453.528,38.4897
2023-12-22T02:00:49,2420,42.8014,5.9826,13.2982,4.59966,2453.514,38.4922
2023-12-22T02:03:49,2420,42.8014,5.9826,13.2980,4.59934,2453.491,38.4893
2023-12-22T02:06:49,2420,42.8014,5.9826,13.2985,4.59934,2453.506,38.4888
2023-12-22T02:09:49,2420,42.8014,5.9826,13.2982,4.59931,2453.528,38.4888
2023-12-22T02:12:49,2420,42.8014,5.9826,13.2986,4.59932,2453.537,38.4885
2023-12-22T02:15:49,2420,42.8014,5.9826,13.2978,4.59924,2453.537,38.4885
2023-12-22T02:18:49,2420,42.8014,5.9826,13.2986,4.59925,2453.537,38.4878
2023-12-22T02:21:49,2420,42.8014,5.9826,13.2979,4.59922,2453.514,38.4883
2023-12-22T02:24:49,2420,42.8014,5.9826,13.2979,4.59921,2453.491,38.4881
2023-12-22T02:27:49,2420,42.8014,5.9826,13.2978,4.59914,2453.551,38.4876
2023-12-22T02:30:49,2420,42.8014,5.9826,13.2978,4.59920,2453.537,38.4881
2023-12-22T02:33:49,2420,42.8014,5.9826,13.2973,4.59916,2453.537,38.4882
2023-12-22T02:36:49,2420,42.8014,5.9826,13.2973,4.59922,2453.514,38.4888
2023-12-22T02:39:49,2420,42.8014,5.9826,13.2978,4.59921,2453.559,38.4883
2023-12-22T02:42:49,2420,42.8014,5.9826,13.2978,4.59917,2453.537,38.4879
2023-12-22T02:45:49,2420,42.8014,5.9826,13.2976,4.59917,2453.514,38.4881
2023-12-22T02:48:49,2420,42.8014,5.9826,13.2977,4.59917,2453.537,38.4880
2023-12-22T02:51:49,2420,42.8014,5.9826,13.2978,4.59910,2453.559,38.4872
2023-12-22T02:54:49,2420,42.8014,5.9826,13.2985,4.59912,2453.514,38.4867
2023-12-22T02:57:49,2420,42.8014,5.9826,13.2985,4.59925,2453.522,38.4879
2023-12-22T03:00:49,2420,42.8014,5.9826,13.2975,4.59915,2453.522,38.4880
2023-12-22T03:03:49,2420,42.8014,5.9826,13.2978,4.59913,2453.506,38.4875
2023-12-22T03:06:49,2420,42.8014,5.9826,13.2978,4.59914,2453.514,38.4877
2023-12-22T03:09:49,2420,42.8014,5.9826,13.2975,4.59912,2453.469,38.4877
2023-12-22T03:12:49,2420,42.8014,5.9826,13.2971,4.59911,2453.469,38.4880
2023-12-22T03:15:49,2420,42.8014,5.9826,13.2978,4.59910,2453.446,38.4872
2023-12-22T03:18:49,2420,42.8014,5.9826,13.2975,4.59912,2453.582,38.4877
2023-12-22T03:21:49,2420,42.8014,5.9826,13.2976,4.59912,2453.559,38.4876
2023-12-22T03:24:49,2420,42.8014,5.9826,13.2978,4.59911,2453.559,38.4872
2023-12-22T03:27:49,2420,42.8014,5.9826,13.2978,4.59906,2453.514,38.4868
2023-12-22T03:30:49,2420,42.8014,5.9826,13.2979,4.59914,2453.514,38.4875
2023-12-22T03:33:49,2420,42.8014,5.9826,13.2973,4.59914,2453.559,38.4881
2023-12-22T03:36:49,2420,42.8014,5.9826,13.2973,4.59911,2453.483,38.4878
2023-12-22T03:39:49,2420,42.8014,5.9826,13.2977,4.59912,2453.537,38.4875
2023-12-22T03:42:49,2420,42.8014,5.9826,13.2979,4.59911,2453.514,38.4873
2023-12-22T03:45:49,2420,42.8014,5.9826,13.2976,4.59903,2453.537,38.4867
2023-12-22T03:48:49,2420,42.8014,5.9826,13.2976,4.59903,2453.514,38.4867
2023-12-22T03:51:49,2420,42.8014,5.9826,13.2977,4.59908,2453.537,38.4871
2023-12-22T03:54:49,2420,42.8014,5.9826,13.2977,4.59900,2453.514,38.4864
2023-12-22T03:57:49,2420,42.8014,5.9826,13.2976,4.59902,2453.537,38.4866
2023-12-22T04:00:49,2420,42.8014,5.9826,13.2979,4.59906,2453.537,38.4867
2023-12-22T04:03:49,2420,42.8014,5.9826,13.2976,4.59899,2453.514,38.4864
2023-12-22T04:06:49,2420,42.8014,5.9826,13.2978,4.59902,2453.499,38.4864
2023-12-22T04:09:49,2420,42.8014,5.9826,13.2975,4.59901,2453.514,38.4867
2023-12-22T04:12:49,2420,42.8014,5.9826,13.2978,4.59913,2453.537,38.4875
2023-12-22T04:15:49,2420,42.8014,5.9826,13.2977,4.59908,2453.506,38.4871
2023-12-22T04:18:50,2420,42.8014,5.9826,13.2975,4.59911,2453.491,38.4876
2023-12-22T04:21:49,2420,42.8014,5.9826,13.2979,4.59908,2453.514,38.4869
2023-12-22T04:24:49,2420,42.8014,5.9826,13.2975,4.59910,2453.506,38.4875
2023-12-22T04:27:49,2420,42.8014,5.9826,13.2975,4.59911,2453.528,38.4877
2023-12-22T04:30:49,2420,42.8014,5.9826,13.2978,4.59928,2453.537,38.4889
2023-12-22T04:33:49,2420,42.8014,5.9826,13.2979,4.59911,2453.514,38.4872
2023-12-22T04:36:49,2420,42.8014,5.9826,13.2974,4.59908,2453.491,38.4874
2023-12-22T04:39:49,2420,42.8014,5.9826,13.2976,4.59914,2453.537,38.4877
2023-12-22T04:42:49,2420,42.8014,5.9826,13.2974,4.59913,2453.537,38.4879
2023-12-22T04:45:49,2420,42.8014,5.9826,13.2978,4.59926,2453.514,38.4887
2023-12-22T04:48:49,2420,42.8014,5.9826,13.2979,4.59920,2453.514,38.4880
2023-12-22T04:51:49,2420,42.8014,5.9826,13.2978,4.59927,2453.514,38.4889
2023-12-22T04:54:49,2420,42.8014,5.9826,13.2976,4.59936,2453.514,38.4898
2023-12-22T04:57:49,2420,42.8014,5.9826,13.2977,4.59937,2453.514,38.4899
2023-12-22T05:00:49,2420,42.8014,5.9826,13.2975,4.59925,2453.514,38.4889
2023-12-22T05:03:49,2420,42.8014,5.9826,13.2978,4.59934,2453.537,38.4895
2023-12-22T05:06:49,2420,42.8014,5.9826,13.2976,4.59935,2453.491,38.4898
2023-12-22T05:09:49,2420,42.8014,5.9826,13.2975,4.59935,2453.491,38.4899
2023-12-22T05:12:49,2420,42.8014,5.9826,13.2978,4.59925,2453.514,38.4886
2023-12-22T05:15:49,2420,42.8014,5.9826,13.2977,4.59988,2453.514,38.4947
2023-12-22T05:18:49,2420,42.8014,5.9826,13.2975,4.59946,2453.537,38.4909
2023-12-22T05:21:49,2420,42.8014,5.9826,13.2973,4.59954,2453.491,38.4918
2023-12-22T05:24:49,2420,42.8014,5.9826,13.2975,4.59935,2453.522,38.4899
2023-12-22T05:27:49,2420,42.8014,5.9826,13.2979,4.59926,2453.469,38.4886
2023-12-22T05:30:49,2420,42.8014,5.9826,13.2978,4.59935,2453.499,38.4896
2023-12-22T05:33:49,2420,42.8014,5.9826,13.2975,4.59951,2453.514,38.4913
2023-12-22T05:36:49,2420,42.8014,5.9826,13.2979,4.59977,2453.514,38.4935
2023-12-22T05:39:49,2420,42.8014,5.9826,13.2979,4.59943,2453.514,38.4902
2023-12-22T05:42:49,2420,42.8014,5.9826,13.2974,4.59951,2453.514,38.4915
2023-12-22T05:45:49,2420,42.8014,5.9826,13.2979,4.59941,2453.537,38.4900
2023-12-22T05:48:49,2420,42.8014,5.9826,13.2978,4.59944,2453.528,38.4905
2023-12-22T05:51:49,2420,42.8014,5.9826,13.2975,4.59969,2453.514,38.4931
2023-12-22T05:54:49,2420,42.8014,5.9826,13.2974,4.60040,2453.477,38.4999
2023-12-22T05:57:49,2420,42.8014,5.9826,13.2978,4.60300,2453.514,38.5240
2023-12-22T06:00:49,2420,42.8014,5.9826,13.2975,4.60109,2453.514,38.5063
2023-12-22T06:03:49,2420,42.8014,5.9826,13.3009,4.60111,2453.491,38.5032
2023-12-22T06:06:49,2420,42.8014,5.9826,13.3027,4.60068,2453.491,38.4973
2023-12-22T06:09:49,2420,42.8014,5.9826,13.3069,4.60083,2453.469,38.4945
2023-12-22T06:12:49,2420,42.8014,5.9826,13.3735,4.60062,2453.506,38.4265
2023-12-22T06:15:49,2420,42.8014,5.9826,13.3263,4.60021,2453.483,38.4694
2023-12-22T06:18:49,2420,42.8014,5.9826,13.3677,4.60022,2453.469,38.4285
2023-12-22T06:21:49,2420,42.8014,5.9826,13.3592,4.59993,2453.506,38.4342
2023-12-22T06:24:49,2420,42.8014,5.9826,13.3029,4.59988,2453.506,38.4896
2023-12-22T06:27:49,2420,42.8014,5.9826,13.3170,4.59996,2453.528,38.4762
2023-12-22T06:30:49,2420,42.8014,5.9826,13.3176,4.59990,2453.514,38.4751
2023-12-22T06:33:49,2420,42.8014,5.9826,13.3110,4.59988,2453.506,38.4815
2023-12-22T06:36:49,2420,42.8014,5.9826,13.3305,4.59985,2453.469,38.4619
2023-12-22T06:39:49,2420,42.8014,5.9826,13.3139,4.59974,2453.469,38.4773
2023-12-22T06:42:49,2420,42.8014,5.9826,13.3071,4.59994,2453.506,38.4860
2023-12-22T06:45:49,2420,42.8014,5.9826,13.3156,4.59978,2453.506,38.4760
2023-12-22T06:48:49,2420,42.8014,5.9826,13.3167,4.59992,2453.491,38.4763
2023-12-22T06:51:49,2420,42.8014,5.9826,13.3036,4.59971,2453.506,38.4872
2023-12-22T06:54:49,2420,42.8014,5.9826,13.3261,4.60029,2453.477,38.4704
2023-12-22T06:57:49,2420,42.8014,5.9826,13.3661,4.60041,2453.491,38.4319
2023-12-22T07:00:49,2420,42.8014,5.9826,13.3210,4.60008,2453.469,38.4735
2023-12-22T07:03:49,2420,42.8014,5.9826,13.3246,4.59972,2453.506,38.4665
2023-12-22T07:06:49,2420,42.8014,5.9826,13.3100,4.59969,2453.491,38.4807
2023-12-22T07:09:49,2420,42.8014,5.9826,13.3268,4.59960,2453.483,38.4632
2023-12-22T07:12:49,2420,42.8014,5.9826,13.3119,4.59952,2453.469,38.4772
2023-12-22T07:15:49,2420,42.8014,5.9826,13.3104,4.59947,2453.469,38.4783
2023-12-22T07:18:49,2420,42.8014,5.9826,13.3035,4.59950,2453.491,38.4853
2023-12-22T07:21:49,2420,42.8014,5.9826,13.3094,4.59941,2453.446,38.4786
2023-12-22T07:24:49,2420,42.8014,5.9826,13.3110,4.60002,2453.491,38.4828
2023-12-22T07:27:49,2420,42.8014,5.9826,13.3080,4.59982,2453.469,38.4839
2023-12-22T07:30:49,2420,42.8014,5.9826,13.3055,4.59916,2453.469,38.4801
2023-12-22T07:33:49,2420,42.8014,5.9826,13.3167,4.59938,2453.483,38.4712
2023-12-22T07:36:49,2420,42.8014,5.9826,13.3069,4.59924,2453.446,38.4795
2023-12-22T07:39:49,2420,42.8014,5.9826,13.2992,4.59962,2453.491,38.4908
2023-12-22T07:42:49,2420,42.8014,5.9826,13.3088,4.59946,2453.469,38.4796
2023-12-22T07:45:49,2420,42.8014,5.9826,13.3056,4.59939,2453.469,38.4822
2023-12-22T07:48:49,2420,42.8014,5.9826,13.3043,4.59949,2453.469,38.4845
2023-12-22T07:51:49,2420,42.8014,5.9826,13.2988,4.59938,2453.491,38.4889
2023-12-22T07:54:49,2420,42.8014,5.9826,13.3015,4.59948,2453.469,38.4872
2023-12-22T07:57:49,2420,42.8014,5.9826,13.2995,4.59925,2453.446,38.4869
2023-12-22T08:00:49,2420,42.8014,5.9826,13.3000,4.59922,2453.454,38.4862
2023-12-22T08:03:49,2420,42.8014,5.9826,13.3026,4.59936,2453.469,38.4849
2023-12-22T08:06:49,2420,42.8014,5.9826,13.2986,4.59950,2453.446,38.4902
2023-12-22T08:09:49,2420,42.8014,5.9826,13.2996,4.59913,2453.446,38.4858
2023-12-22T08:12:49,2420,42.8014,5.9826,13.2988,4.59967,2453.477,38.4916
2023-12-22T08:15:49,2420,42.8014,5.9826,13.2991,4.59927,2453.469,38.4875
2023-12-22T08:18:49,2420,42.8014,5.9826,13.2988,4.59915,2453.438,38.4868
2023-12-22T08:21:49,2420,42.8014,5.9826,13.2991,4.59923,2453.469,38.4872
2023-12-22T08:24:49,2420,42.8014,5.9826,13.2991,4.59919,2453.438,38.4868
2023-12-22T08:27:49,2420,42.8014,5.9826,13.2990,4.59910,2453.469,38.4860
2023-12-22T08:30:49,2420,42.8014,5.9826,13.2986,4.59921,2453.469,38.4875
2023-12-22T08:33:49,2420,42.8014,5.9826,13.2984,4.59940,2453.469,38.4894
2023-12-22T08:36:49,2420,42.8014,5.9826,13.2984,4.59911,2453.469,38.4867
2023-12-22T08:39:49,2420,42.8014,5.9826,13.2982,4.59928,2453.424,38.4886
2023-12-22T08:42:49,2420,42.8014,5.9826,13.2982,4.59914,2453.446,38.4872
2023-12-22T08:45:49,2420,42.8014,5.9826,13.2999,4.59947,2453.469,38.4886
2023-12-22T08:48:49,2420,42.8014,5.9826,13.2990,4.59947,2453.446,38.4895
2023-12-22T08:51:49,2420,42.8014,5.9826,13.2996,4.59935,2453.446,38.4878
2023-12-22T08:54:49,2420,42.8014,5.9826,13.3006,4.59928,2453.446,38.4862
2023-12-22T08:57:49,2420,42.8014,5.9826,13.2988,4.59935,2453.469,38.4886
2023-12-22T09:00:49,2420,42.8014,5.9826,13.2987,4.59903,2453.469,38.4857
2023-12-22T09:03:49,2420,42.8014,5.9826,13.2988,4.59919,2453.469,38.4871
2023-12-22T09:06:49,2420,42.8014,5.9826,13.2990,4.59929,2453.446,38.4878
2023-12-22T09:09:49,2420,42.8014,5.9826,13.2985,4.59918,2453.446,38.4873
2023-12-22T09:12:49,2420,42.8014,5.9826,13.2987,4.59908,2453.461,38.4861
2023-12-22T09:15:49,2420,42.8014,5.9826,13.2988,4.59925,2453.469,38.4877
2023-12-22T09:18:49,2420,42.8014,5.9826,13.2988,4.59909,2453.446,38.4861
2023-12-22T09:21:49,2420,42.8014,5.9826,13.2995,4.59943,2453.446,38.4887
2023-12-22T09:24:49,2420,42.8014,5.9826,13.2997,4.59946,2453.446,38.4887
2023-12-22T09:27:49,2420,42.8014,5.9826,13.3034,4.59946,2453.424,38.4851
2023-12-22T09:30:49,2420,42.8014,5.9826,13.3001,4.59930,2453.424,38.4868
2023-12-22T09:33:49,2420,42.8014,5.9826,13.3120,4.59933,2453.446,38.4753
2023-12-22T09:36:49,2420,42.8014,5.9826,13.3107,4.59914,2453.424,38.4748
2023-12-22T09:39:49,2420,42.8014,5.9826,13.3088,4.59990,2453.446,38.4838
2023-12-22T09:42:49,2420,42.8014,5.9826,13.3133,4.59936,2453.424,38.4743
2023-12-22T09:45:49,2420,42.8014,5.9826,13.3170,4.60027,2453.446,38.4792
2023-12-22T09:48:49,2420,42.8014,5.9826,13.3046,4.59937,2453.446,38.4831
2023-12-22T09:51:49,2420,42.8014,5.9826,13.3145,4.59918,2453.469,38.4714
2023-12-22T09:54:49,2420,42.8014,5.9826,13.3022,4.59959,2453.424,38.4875
2023-12-22T09:57:49,2420,42.8014,5.9826,13.3048,4.59949,2453.446,38.4840
2023-12-22T10:00:49,2420,42.8014,5.9826,13.3157,4.60038,2453.446,38.4816
2023-12-22T10:03:49,2420,42.8014,5.9826,13.3197,4.59926,2453.491,38.4670
2023-12-22T10:06:49,2420,42.8014,5.9826,13.3041,4.59925,2453.446,38.4823
2023-12-22T10:09:49,2420,42.8014,5.9826,13.3094,4.59921,2453.469,38.4767
2023-12-22T10:12:49,2420,42.8014,5.9826,13.3002,4.59973,2453.491,38.4907
2023-12-22T10:15:49,2420,42.8014,5.9826,13.3049,4.59938,2453.454,38.4829
2023-12-22T10:18:50,2420,42.8014,5.9826,13.3044,4.59980,2453.446,38.4873
2023-12-22T10:21:49,2420,42.8014,5.9826,13.2997,4.59945,2453.446,38.4887
2023-12-22T10:24:49,2420,42.8014,5.9826,13.3000,4.59936,2453.446,38.4874
2023-12-22T10:27:49,2420,42.8014,5.9826,13.3059,4.59945,2453.446,38.4825
2023-12-22T10:30:49,2420,42.8014,5.9826,13.3000,4.59941,2453.461,38.4880
2023-12-22T10:33:49,2420,42.8014,5.9826,13.3050,4.60005,2453.483,38.4890
2023-12-22T10:36:49,2420,42.8014,5.9826,13.3040,4.59913,2453.469,38.4813
2023-12-22T10:39:49,2420,42.8014,5.9826,13.3048,4.59921,2453.446,38.4814
2023-12-22T10:42:49,2420,42.8014,5.9826,13.3040,4.59941,2453.483,38.4840
2023-12-22T10:45:49,2420,42.8014,5.9826,13.3081,4.59956,2453.469,38.4813
2023-12-22T10:48:49,2420,42.8014,5.9826,13.3084,4.59919,2453.438,38.4775
2023-12-22T10:51:49,2420,42.8014,5.9826,13.2991,4.59919,2453.409,38.4868
2023-12-22T10:54:49,2420,42.8014,5.9826,13.3075,4.59946,2453.446,38.4810
2023-12-22T10:57:49,2420,42.8014,5.9826,13.3005,4.59934,2453.469,38.4868
2023-12-22T11:00:49,2420,42.8014,5.9826,13.3018,4.59942,2453.446,38.4863
2023-12-22T11:03:49,2420,42.8014,5.9826,13.3082,4.59937,2453.438,38.4795
2023-12-22T11:06:49,2420,42.8014,5.9826,13.3002,4.59958,2453.438,38.4894
2023-12-22T11:09:49,2420,42.8014,5.9826,13.3012,4.59910,2453.446,38.4838
2023-12-22T11:12:49,2420,42.8014,5.9826,13.2983,4.59914,2453.446,38.4871
2023-12-22T11:15:49,2420,42.8014,5.9826,13.2988,4.59915,2453.446,38.4867
2023-12-22T11:18:49,2420,42.8014,5.9826,13.2991,4.59907,2453.469,38.4857
2023-12-22T11:21:49,2420,42.8014,5.9826,13.2986,4.59906,2453.483,38.4860
2023-12-22T11:24:49,2420,42.8014,5.9826,13.2981,4.59908,2453.446,38.4868
2023-12-22T11:27:49,2420,42.8014,5.9826,13.3001,4.59906,2453.424,38.4845
2023-12-22T11:30:49,2420,42.8014,5.9826,13.3002,4.59914,2453.469,38.4853
2023-12-22T11:33:49,2420,42.8014,5.9826,13.3086,4.59930,2453.446,38.4784
2023-12-22T11:36:49,2420,42.8014,5.9826,13.3005,4.59951,2453.469,38.4884
2023-12-22T11:39:49,2420,42.8014,5.9826,13.3051,4.59928,2453.446,38.4818
2023-12-22T11:42:49,2420,42.8014,5.9826,13.3081,4.59994,2453.461,38.4849
2023-12-22T11:45:49,2420,42.8014,5.9826,13.3105,4.59951,2453.446,38.4785
2023-12-22T11:48:49,2420,42.8014,5.9826,13.3006,4.59917,2453.446,38.4852
2023-12-22T11:51:49,2420,42.8014,5.9826,13.3067,4.59960,2453.469,38.4831
2023-12-22T11:54:49,2420,42.8014,5.9826,13.2995,4.59924,2453.446,38.4869
2023-12-22T11:57:49,2420,42.8014,5.9826,13.3084,4.60200,2453.446,38.5041
2023-12-22T12:00:49,2420,42.8014,5.9826,13.3088,4.60158,2453.491,38.4997
2023-12-22T12:03:49,2420,42.8014,5.9826,13.3275,4.60475,2453.483,38.5111
2023-12-22T12:06:49,2420,42.8014,5.9826,13.3314,4.60069,2453.446,38.4689
2023-12-22T12:09:49,2420,42.8014,5.9826,13.3200,4.60258,2453.483,38.4980
2023-12-22T12:12:49,2420,42.8014,5.9826,13.3291,4.60158,2453.461,38.4796
2023-12-22T12:15:49,2420,42.8014,5.9826,13.3143,4.60539,2453.469,38.5303
2023-12-22T12:18:49,2420,42.8014,5.9826,13.3210,4.60226,2453.506,38.4939
2023-12-22T12:21:49,2420,42.8014,5.9826,13.3136,4.60130,2453.483,38.4923
2023-12-22T12:24:49,2420,42.8014,5.9826,13.3121,4.60169,2453.483,38.4975
2023-12-22T12:27:49,2420,42.8014,5.9826,13.3135,4.60068,2453.491,38.4866
2023-12-22T12:30:49,2420,42.8014,5.9826,13.3123,4.60143,2453.491,38.4948
2023-12-22T12:33:49,2420,42.8014,5.9826,13.3087,4.60062,2453.506,38.4908
2023-12-22T12:36:49,2420,42.8014,5.9826,13.3072,4.60184,2453.528,38.5037
2023-12-22T12:39:49,2420,42.8014,5.9826,13.3092,4.60039,2453.506,38.4881
2023-12-22T12:42:49,2420,42.8014,5.9826,13.3039,4.60101,2453.506,38.4992
2023-12-22T12:45:49,2420,42.8014,5.9826,13.3065,4.60197,2453.537,38.5056
2023-12-22T12:48:49,2420,42.8014,5.9826,13.3045,4.60115,2453.491,38.5000
2023-12-22T12:51:50,2420,42.8014,5.9826,13.3088,4.59955,2453.491,38.4805
2023-12-22T12:54:49,2420,42.8014,5.9826,13.3056,4.59974,2453.514,38.4855
2023-12-22T12:57:49,2420,42.8014,5.9826,13.3037,4.59976,2453.514,38.4876
2023-12-22T13:00:49,2420,42.8014,5.9826,13.3064,4.59988,2453.491,38.4860
2023-12-22T13:03:49,2420,42.8014,5.9826,13.3061,4.59974,2453.537,38.4851
2023-12-22T13:06:49,2420,42.8014,5.9826,13.3071,4.59979,2453.528,38.4845
2023-12-22T13:09:49,2420,42.8014,5.9826,13.3020,4.59985,2453.491,38.4901
2023-12-22T13:12:49,2420,42.8014,5.9826,13.3088,4.60002,2453.537,38.4849
2023-12-22T13:15:49,2420,42.8014,5.9826,13.3054,4.60025,2453.528,38.4905
2023-12-22T13:18:49,2420,42.8014,5.9826,13.2989,4.59998,2453.491,38.4944
2023-12-22T13:21:49,2420,42.8014,5.9826,13.3058,4.60100,2453.537,38.4972
2023-12-22T13:24:49,2420,42.8014,5.9826,13.3010,4.60002,2453.537,38.4926
2023-12-22T13:27:49,2420,42.8014,5.9826,13.2988,4.59991,2453.514,38.4939
2023-12-22T13:30:49,2420,42.8014,5.9826,13.3048,4.59974,2453.537,38.4863
2023-12-22T13:33:49,2420,42.8014,5.9826,13.3045,4.60041,2453.514,38.4929
2023-12-22T13:36:49,2420,42.8014,5.9826,13.3042,4.60014,2453.537,38.4907
2023-12-22T13:39:49,2420,42.8014,5.9826,13.3021,4.59974,2453.528,38.4889
2023-12-22T13:42:49,2420,42.8014,5.9826,13.3035,4.60011,2453.491,38.4911
2023-12-22T13:45:49,2420,42.8014,5.9826,13.3036,4.60003,2453.514,38.4902
2023-12-22T13:48:49,2420,42.8014,5.9826,13.3008,4.59968,2453.491,38.4897
2023-12-22T13:51:50,2420,42.8014,5.9826,13.3044,4.59973,2453.559,38.4865
2023-12-22T13:54:49,2420,42.8014,5.9826,13.2999,4.59968,2453.537,38.4906
2023-12-22T13:57:49,2420,42.8014,5.9826,13.3018,4.59986,2453.514,38.4904
2023-12-22T14:00:49,2420,42.8014,5.9826,13.3045,4.59966,2453.537,38.4859
2023-12-22T14:03:49,2420,42.8014,5.9826,13.2988,4.59951,2453.574,38.4901
2023-12-22T14:06:49,2420,42.8014,5.9826,13.3004,4.59951,2453.559,38.4885
2023-12-22T14:09:49,2420,42.8014,5.9826,13.2985,4.59971,2453.551,38.4923
2023-12-22T14:12:49,2420,42.8014,5.9826,13.2985,4.59944,2453.559,38.4897
2023-12-22T14:15:49,2420,42.8014,5.9826,13.2991,4.59949,2453.582,38.4896
2023-12-22T14:18:49,2420,42.8014,5.9826,13.2989,4.59942,2453.559,38.4891
2023-12-22T14:21:49,2420,42.8014,5.9826,13.2988,4.59940,2453.522,38.4890
2023-12-22T14:24:49,2420,42.8014,5.9826,13.3009,4.59971,2453.574,38.4899
2023-12-22T14:27:49,2420,42.8014,5.9826,13.2985,4.59957,2453.559,38.4910
2023-12-22T14:30:49,2420,42.8014,5.9826,13.2986,4.59969,2453.559,38.4919
2023-12-22T14:33:49,2420,42.8014,5.9826,13.2982,4.59955,2453.559,38.4911
2023-12-22T14:36:49,2420,42.8014,5.9826,13.3011,4.59948,2453.582,38.4876
2023-12-22T14:39:49,2420,42.8014,5.9826,13.2985,4.59955,2453.582,38.4908
2023-12-22T14:42:49,2420,42.8014,5.9826,13.3001,4.59941,2453.522,38.4878
2023-12-22T14:45:49,2420,42.8014,5.9826,13.2980,4.59956,2453.596,38.4913
2023-12-22T14:48:49,2420,42.8014,5.9826,13.2990,4.59964,2453.559,38.4911
2023-12-22T14:51:49,2420,42.8014,5.9826,13.2985,4.59939,2453.544,38.4893
2023-12-22T14:54:49,2420,42.8014,5.9826,13.2997,4.59934,2453.537,38.4876
2023-12-22T14:57:49,2420,42.8014,5.9826,13.2991,4.59952,2453.559,38.4898
2023-12-22T15:00:50,2420,42.8014,5.9826,13.2995,4.59955,2453.559,38.4898
2023-12-22T15:03:49,2420,42.8014,5.9826,13.2985,4.59947,2453.544,38.4900
2023-12-22T15:06:49,2420,42.8014,5.9826,13.2991,4.59976,2453.544,38.4921
2023-12-22T15:09:49,2420,42.8014,5.9826,13.2988,4.59951,2453.559,38.4901
2023-12-22T15:12:49,2420,42.8014,5.9826,13.3001,4.59941,2453.574,38.4878
2023-12-22T15:15:49,2420,42.8014,5.9826,13.3015,4.59961,2453.522,38.4883
2023-12-22T15:18:49,2420,42.8014,5.9826,13.2992,4.59946,2453.559,38.4892
2023-12-22T15:21:49,2420,42.8014,5.9826,13.2986,4.59968,2453.596,38.4918
2023-12-22T15:24:49,2420,42.8014,5.9826,13.2984,4.59942,2453.582,38.4896
2023-12-22T15:27:49,2420,42.8014,5.9826,13.2998,4.59950,2453.537,38.4890
2023-12-22T15:30:49,2420,42.8014,5.9826,13.2982,4.59937,2453.544,38.4894
2023-12-22T15:33:49,2420,42.8014,5.9826,13.2993,4.59931,2453.582,38.4876
2023-12-22T15:36:49,2420,42.8014,5.9826,13.2993,4.59948,2453.582,38.4893
2023-12-22T15:39:49,2420,42.8014,5.9826,13.2986,4.59957,2453.596,38.4909
2023-12-22T15:42:49,2420,42.8014,5.9826,13.2995,4.59922,2453.559,38.4866
2023-12-22T15:45:49,2420,42.8014,5.9826,13.2986,4.59928,2453.559,38.4881
2023-12-22T15:48:49,2420,42.8014,5.9826,13.2988,4.59928,2453.574,38.4879
2023-12-22T15:51:49,2420,42.8014,5.9826,13.2986,4.59948,2453.537,38.4900
2023-12-22T15:54:49,2420,42.8014,5.9826,13.2979,4.59925,2453.604,38.4884
2023-12-22T15:57:49,2420,42.8014,5.9826,13.2986,4.59926,2453.582,38.4879
2023-12-22T16:00:49,2420,42.8014,5.9826,13.2988,4.59923,2453.559,38.4874
2023-12-22T16:03:49,2420,42.8014,5.9826,13.2990,4.59931,2453.582,38.4879